カタログに戻る

KUIPER-00297

運用中通信LEO
NORAD 68596·PAYLOAD·🇺🇸 United States

打ち上げ Apr 4, 2026 から Cape Canaveral Space Force Station

Loading…

次のパス (今後24時間)

TLE

最新Source: CelesTrak SupGP

元期: Sep 14, 2026, 21:46 UTC

1 68596C 26072Z   26257.90733796  .00000522  00000+0  68293-4 0  2574
2 68596  51.8984 151.3842 0001443  98.4299 234.5177 14.79930607    14

AllMySatでKUIPER-00297をリアルタイム追跡

Download on the App Store